Date,TemperatureHighF,TemperatureAvgF,TemperatureLowF,DewpointHighF,DewpointAvgF,DewpointLowF,HumidityHigh,HumidityAvg,HumidityLow,PressureMaxIn,PressureMinIn,WindSpeedMaxMPH,WindSpeedAvgMPH,GustSpeedMaxMPH,PrecipitationSumIn
2013-1-1,26.6,14.3,3.0,20.3,9.8,-0.6,92,82,67,30.51,30.38,14,4,14,0.02
2013-1-2,32.8,24.0,10.6,25.6,18.0,4.3,91,78,67,30.55,30.40,27,14,27,0.00
2013-1-3,30.4,18.4,5.8,19.0,12.1,0.4,94,77,56,30.63,30.51,16,5,16,0.00
2013-1-4,41.6,19.7,5.0,22.9,10.2,-0.6,83,68,38,30.53,30.28,13,2,13,0.00
2013-1-5,39.3,23.7,7.4,28.3,16.7,2.5,84,75,60,30.58,30.27,23,10,23,0.00
2013-1-6,46.2,28.5,10.4,29.0,19.7,6.2,84,71,45,30.57,30.13,30,11,30,0.00
2013-1-7,46.4,30.7,18.8,28.9,22.2,15.7,90,72,46,30.17,30.00,15,4,15,0.00
2013-1-8,49.0,30.4,15.7,34.0,23.3,12.0,89,76,52,30.45,29.97,17,4,17,0.00
2013-1-9,54.2,34.7,19.7,32.8,24.6,15.9,92,70,33,30.58,30.35,28,8,28,0.00
2013-1-10,40.9,36.3,28.3,37.9,33.4,23.5,96,89,77,30.35,29.61,33,11,33,0.00
2013-1-11,55.9,34.1,18.0,36.7,25.0,8.9,97,75,21,30.05,29.38,48,17,48,0.00
2013-1-12,22.4,14.4,5.1,10.6,6.5,0.4,82,71,57,30.43,30.04,26,10,26,0.00
2013-1-13,23.4,10.1,0.1,10.2,2.9,-4.3,92,73,53,30.60,30.41,23,5,23,0.00
2013-1-14,26.7,15.1,-1.6,17.9,8.9,-6.2,87,77,56,30.67,30.48,22,5,22,0.00
2013-1-15,31.9,22.8,14.4,25.0,13.5,2.9,89,70,30,30.48,30.30,20,7,20,0.00
2013-1-16,52.0,37.1,24.9,27.9,24.8,20.4,87,63,36,30.49,30.28,31,12,31,0.00
2013-1-17,54.7,34.6,19.2,28.1,20.0,15.0,92,60,25,30.67,30.37,15,5,15,0.00
2013-1-18,60.7,37.9,21.1,28.9,19.0,13.4,87,53,19,30.37,30.14,29,7,29,0.00
2013-1-19,57.6,38.4,22.9,22.4,18.1,13.8,77,48,23,30.37,30.15,24,7,24,0.00
2013-1-20,46.1,28.1,13.8,26.2,19.8,9.9,92,73,41,30.56,30.27,34,9,34,0.00
2013-1-21,44.4,25.7,10.3,27.0,17.1,6.9,92,72,41,30.53,30.30,22,5,22,0.00
2013-1-22,58.4,31.9,10.3,29.7,15.7,7.2,90,60,20,30.36,30.27,19,4,19,0.00
2013-1-23,57.4,32.9,19.7,24.9,18.1,12.8,87,60,19,30.46,30.25,17,5,17,0.00
2013-1-24,46.7,27.5,14.8,27.1,19.3,11.9,91,73,41,30.46,30.16,30,9,30,0.00
2013-1-25,57.6,37.5,18.8,28.7,22.7,14.8,88,59,31,30.42,30.23,22,6,25,0.00
2013-1-26,59.4,40.0,20.2,37.5,26.5,16.5,92,63,31,30.24,29.86,20,7,20,0.11
2013-1-27,58.5,40.5,30.4,44.9,35.8,27.6,96,85,54,29.88,29.74,19,5,19,0.00
2013-1-28,68.8,41.6,26.0,44.5,32.5,24.3,97,77,23,29.88,29.54,30,11,30,0.01
2013-1-29,33.7,29.5,22.9,30.4,25.6,18.3,92,85,75,30.03,29.74,27,14,27,0.00
2013-1-30,38.9,27.0,13.1,25.8,16.5,8.6,86,67,35,30.17,30.02,32,14,32,0.00
2013-1-31,38.9,30.3,17.0,26.7,19.9,12.5,87,66,48,30.43,30.09,31,10,31,0.00
2013-2-1,56.4,34.1,15.0,32.4,23.5,12.2,92,70,27,30.42,30.17,27,12,27,0.00
2013-2-2,53.7,36.8,21.8,30.3,22.6,13.4,92,61,30,30.44,30.34,23,9,23,0.00
2013-2-3,53.4,34.1,16.0,26.1,19.3,11.8,85,58,30,30.44,30.00,34,7,34,0.00
2013-2-4,59.2,38.1,21.0,25.4,17.9,11.5,79,49,19,30.13,29.94,22,8,22,0.00
2013-2-5,59.0,37.8,19.1,26.5,19.9,12.6,83,52,26,30.20,30.04,22,6,22,0.00
2013-2-6,63.7,43.7,25.3,29.0,23.4,18.0,78,48,23,30.07,29.84,28,10,28,0.00
2013-2-7,53.9,38.6,21.7,32.3,21.7,9.4,89,54,25,30.27,30.07,24,10,24,0.00
2013-2-8,56.8,39.4,19.4,27.3,21.0,10.6,79,50,31,30.28,29.92,50,22,50,0.00
2013-2-9,58.2,42.4,29.4,33.9,24.3,17.7,92,52,29,29.92,29.44,46,20,46,0.00
2013-2-10,38.2,29.4,17.8,29.7,23.8,13.0,93,80,59,30.27,29.48,43,22,43,0.00
2013-2-11,37.5,24.4,13.6,17.7,13.7,8.7,85,65,39,30.39,30.25,17,5,17,0.00
2013-2-12,45.2,29.3,16.0,19.2,13.2,7.5,90,56,23,30.32,30.17,29,8,29,0.00
2013-2-13,53.7,35.0,15.9,21.9,16.8,9.8,80,51,25,30.22,30.03,33,11,33,0.00
2013-2-14,38.4,28.5,15.4,33.5,22.0,10.1,92,77,59,30.54,30.15,33,10,33,0.02
2013-2-15,37.9,22.4,10.0,24.1,14.7,5.9,89,73,48,30.60,30.50,30,7,30,0.00
2013-2-16,59.0,37.8,16.7,26.5,20.3,13.2,88,54,27,30.54,30.11,33,12,33,0.00
2013-2-17,67.3,42.5,20.4,27.4,15.6,7.2,79,43,10,30.11,29.60,44,11,44,0.00
2013-2-18,46.4,33.8,17.2,27.2,19.6,12.2,87,60,26,30.30,29.72,40,18,40,0.00
2013-2-19,42.4,26.5,8.1,22.4,14.9,4.3,88,64,38,30.42,30.19,34,13,34,0.00
2013-2-20,27.1,24.8,23.0,24.0,20.3,13.3,92,83,63,30.19,29.98,32,19,32,0.00
2013-2-21,23.0,15.7,5.6,21.0,13.0,2.4,92,89,86,30.21,29.97,25,12,25,0.00
2013-2-22,31.9,14.2,-1.2,28.9,11.0,-4.9,92,87,84,30.33,30.20,12,4,13,0.06
2013-2-23,38.9,23.7,8.0,31.0,19.7,4.8,92,85,72,30.24,29.94,16,6,16,0.00
2013-2-24,32.1,29.0,22.2,30.6,27.1,20.2,95,92,83,30.24,29.91,32,14,32,0.00
2013-2-25,35.1,28.5,15.2,28.6,24.4,11.4,93,85,70,30.25,30.06,28,14,28,0.00
2013-2-26,37.7,23.5,6.8,26.9,17.2,2.6,88,77,58,30.23,30.01,19,7,19,0.00
2013-2-27,38.4,31.4,21.2,29.1,24.6,17.4,89,76,59,30.40,30.23,37,17,37,0.00
2013-2-28,43.3,30.5,17.9,26.4,20.9,12.9,82,69,43,30.46,30.36,21,11,21,0.00
2013-3-1,43.9,32.5,22.3,29.7,24.4,18.9,95,73,50,30.47,30.37,29,11,29,0.00
2013-3-2,60.9,43.3,28.4,36.0,31.6,25.8,91,67,36,30.46,30.14,27,8,27,0.00
2013-3-3,68.0,46.0,29.6,37.4,30.7,25.6,88,61,25,30.14,29.69,23,5,23,0.00
2013-3-4,45.0,34.7,21.7,35.2,27.0,14.4,96,75,44,30.37,29.71,32,14,32,0.02
2013-3-5,43.8,29.1,14.9,23.5,16.4,9.2,79,61,32,30.57,30.37,31,10,31,0.00
2013-3-6,59.6,37.6,21.8,30.0,23.4,17.2,83,59,31,30.45,30.00,32,16,32,0.00
2013-3-7,56.9,39.0,22.9,34.3,27.7,19.4,89,67,38,30.11,29.99,17,5,17,0.00
2013-3-8,59.0,42.8,27.4,49.6,35.6,24.9,92,77,48,30.10,29.67,33,9,33,0.00
2013-3-9,52.1,36.0,28.3,47.7,34.0,27.0,96,92,84,30.05,29.61,49,19,50,0.00
2013-3-10,31.2,24.9,14.5,27.1,18.5,9.8,95,77,59,30.30,30.05,40,20,42,0.00
2013-3-11,51.7,29.1,14.4,33.3,20.8,10.9,91,73,46,30.27,30.12,25,8,25,0.00
2013-3-15,57.2,48.6,45.1,36.2,29.8,27.3,61,48,34,29.87,29.80,18,4,18,0.00
2013-3-16,49.1,40.4,31.9,36.0,30.5,25.3,87,68,56,30.08,29.87,31,9,31,0.00
2013-3-17,55.9,40.3,26.5,40.2,30.4,23.4,90,70,41,30.05,29.64,40,15,40,0.06
2013-3-18,53.6,38.4,17.6,29.5,17.9,9.7,89,51,18,30.10,29.95,32,9,32,0.00
2013-3-19,52.2,37.0,22.5,21.2,16.4,11.8,79,46,22,30.47,30.08,32,10,32,0.00
2013-3-20,51.7,34.9,12.6,26.8,19.0,9.2,89,57,29,30.54,29.89,34,13,34,0.00
2013-3-21,49.2,37.5,22.4,34.5,26.2,18.3,92,66,42,29.98,29.71,29,8,29,0.14
2013-3-22,52.9,39.7,28.5,34.1,29.4,23.6,96,71,35,30.01,29.82,27,8,27,0.05
2013-3-23,33.1,27.2,19.7,31.0,25.0,14.9,100,91,82,30.36,29.95,25,6,25,0.00
2013-3-24,28.6,16.7,3.2,22.5,12.0,-0.8,92,82,70,30.53,30.36,23,8,23,0.01
2013-3-25,26.2,13.0,2.2,19.0,7.8,-2.0,92,80,70,30.66,30.53,21,9,22,0.00
2013-3-26,42.2,24.5,2.2,32.4,17.8,-2.8,82,76,64,30.65,30.24,24,6,24,0.07
2013-3-27,52.9,37.9,22.4,39.3,30.5,19.1,90,76,50,30.28,30.19,18,5,18,0.00
2013-3-28,63.2,44.9,30.1,39.8,34.5,27.6,93,70,37,30.29,30.13,21,7,21,0.00
2013-3-29,69.8,52.2,32.7,47.7,40.0,29.5,94,67,37,30.20,29.99,28,9,28,0.00
2013-3-30,68.1,52.6,40.1,47.3,39.4,33.5,92,65,29,30.17,29.95,35,10,35,0.08
2013-3-31,69.5,50.4,32.8,44.5,34.2,28.1,94,61,25,30.17,29.93,29,8,29,0.01
2013-4-1,49.2,36.7,29.0,31.2,28.3,25.4,92,73,46,30.33,30.12,25,9,25,0.00
2013-4-2,41.1,37.5,34.3,32.9,29.4,24.5,88,73,62,30.35,30.28,22,10,23,0.00
2013-4-3,49.9,40.3,31.1,32.0,29.6,24.9,88,67,45,30.36,30.23,27,11,30,0.00
2013-4-4,70.2,48.0,24.3,39.9,31.9,21.8,92,60,27,30.28,30.10,18,6,18,0.00
2013-4-5,77.3,59.3,40.6,37.5,32.1,29.0,72,40,18,30.11,29.59,37,13,37,0.00
2013-4-6,71.0,59.4,45.2,40.1,32.5,25.7,73,39,20,29.85,29.63,37,13,37,0.00
2013-4-7,72.7,58.6,42.8,41.5,33.8,25.8,73,42,19,29.85,29.59,31,10,31,0.00
2013-4-8,74.5,57.4,33.9,59.3,43.3,27.2,89,62,33,29.68,29.34,54,15,54,0.00
2013-4-9,52.7,22.3,16.1,47.5,19.3,12.5,96,88,82,30.36,29.40,44,25,54,0.00
2013-4-10,28.8,22.2,15.5,21.0,16.7,11.6,92,80,68,30.39,30.21,35,19,35,0.00
2013-4-11,51.0,34.7,17.4,33.3,22.9,13.1,87,65,32,30.20,29.91,39,14,39,0.00
2013-4-12,60.3,38.6,22.9,41.6,30.9,19.8,94,77,36,30.16,29.97,36,8,36,0.18
2013-4-13,74.7,48.9,26.2,44.9,35.1,24.5,96,66,17,30.16,29.30,40,13,41,0.01
2013-4-14,59.7,49.5,36.1,43.1,20.9,4.2,77,36,14,29.83,29.27,44,18,44,0.00
2013-4-15,50.7,40.9,33.7,26.6,23.1,19.1,70,50,32,30.12,29.79,28,10,28,0.00
2013-4-16,43.4,37.5,31.9,27.9,26.1,23.9,83,64,49,30.24,30.07,29,13,29,0.00
2013-4-17,36.5,32.2,25.9,30.8,28.3,23.9,94,86,67,30.18,30.01,40,18,40,0.00
2013-4-18,33.5,28.1,23.2,25.3,22.8,18.0,93,81,63,30.34,30.18,35,19,35,0.00
2013-4-19,59.0,41.6,22.0,32.1,24.9,17.1,82,55,27,30.31,30.09,33,14,33,0.00
2013-4-20,60.7,45.7,33.4,34.2,30.9,28.1,86,60,29,30.13,29.96,22,8,22,0.00
2013-4-21,68.5,52.3,31.9,42.0,33.1,27.9,91,54,25,30.11,30.00,25,7,25,0.00
2013-4-22,55.2,38.5,26.4,46.5,35.1,24.6,96,88,67,30.41,29.88,39,17,39,0.00
2013-4-23,35.1,27.8,23.3,26.8,23.3,17.5,100,83,68,30.46,30.33,30,14,30,0.00
2013-4-24,56.8,36.4,17.9,36.0,24.4,13.7,85,65,31,30.42,30.31,26,9,26,0.00
2013-4-25,70.5,50.9,25.7,45.1,31.2,22.5,92,54,24,30.39,29.91,57,16,57,0.00
2013-4-26,76.5,58.4,36.9,42.1,32.1,22.8,85,44,14,30.17,29.96,33,12,33,0.00
2013-4-27,80.5,58.9,34.8,44.7,31.4,21.2,91,47,12,30.17,29.91,24,5,24,0.00
2013-4-28,87.3,64.6,37.9,38.8,30.3,22.6,80,37,10,29.93,29.68,31,8,31,0.00
2013-4-29,84.3,64.3,44.8,41.9,37.6,33.8,71,41,17,29.82,29.48,33,8,33,0.00
2013-4-30,68.7,57.3,46.2,41.7,37.8,25.0,68,49,32,29.89,29.46,45,17,45,0.00
2013-5-1,48.8,35.5,30.2,36.0,32.4,28.7,95,89,50,30.70,29.88,46,25,46,0.04
2013-5-2,50.4,36.8,28.7,33.6,27.9,22.2,95,74,35,30.85,30.57,26,11,26,0.01
2013-5-3,59.7,43.3,24.2,32.6,25.9,21.4,91,57,25,30.57,30.19,23,6,23,0.00
2013-5-4,61.1,43.7,25.1,28.5,20.6,14.3,83,47,16,30.33,30.18,36,11,36,0.00
2013-5-5,65.0,46.6,23.6,29.5,24.1,18.5,86,47,21,30.35,30.18,14,4,19,0.00
2013-5-6,73.5,55.9,30.8,43.0,32.3,23.2,80,44,23,30.21,29.95,34,11,34,0.00
2013-5-7,78.2,61.4,50.8,52.3,46.2,40.6,87,61,28,29.99,29.75,28,10,28,0.00
2013-5-8,74.4,58.3,49.9,56.5,48.8,41.5,95,75,32,29.97,29.81,39,10,39,0.22
2013-5-9,61.7,53.0,43.2,52.9,48.1,40.9,93,84,66,30.18,29.94,30,8,30,0.34
2013-5-10,70.7,54.7,38.8,52.9,44.2,37.5,99,72,36,30.22,30.14,33,5,33,0.01
2013-5-11,68.0,56.2,45.4,45.5,38.8,33.4,87,56,30,30.39,30.21,25,9,25,0.00
2013-5-12,81.3,63.8,43.8,48.9,42.1,37.1,92,52,22,30.25,29.99,26,10,26,0.00
2013-5-13,91.8,71.9,49.8,47.6,42.9,37.7,78,42,16,30.02,29.84,17,4,17,0.00
2013-5-14,94.8,78.4,51.4,50.6,43.4,37.3,75,34,14,29.84,29.64,32,8,32,0.00
2013-5-15,84.2,71.5,56.4,50.3,46.8,43.4,68,43,26,29.75,29.65,26,8,26,0.00
2013-5-16,85.5,67.2,58.2,57.5,52.7,41.3,87,63,28,29.77,29.61,47,13,47,0.24
2013-5-17,85.5,71.2,58.4,63.3,58.8,53.3,92,69,34,29.82,29.64,37,18,37,0.10
2013-5-18,86.0,70.9,59.6,63.5,58.1,43.2,96,68,25,29.71,29.45,30,10,30,0.00
2013-5-19,70.8,61.5,49.2,52.6,48.2,41.8,82,63,42,29.73,29.56,38,15,38,0.02
2013-5-20,69.2,58.1,48.8,49.1,44.3,40.5,90,63,37,29.91,29.72,40,20,40,0.00
2013-5-21,70.8,58.1,45.6,42.9,40.4,34.9,82,55,28,29.94,29.80,44,19,44,0.00
2013-5-22,76.0,57.9,38.0,47.4,43.5,35.0,92,63,34,30.06,29.89,22,7,22,0.00
2013-5-23,70.4,57.8,47.9,53.7,49.3,45.7,93,75,51,30.16,30.05,32,14,32,0.04
2013-5-24,86.4,69.4,55.8,59.4,54.8,46.9,93,64,27,30.10,29.72,50,26,52,0.00
2013-5-25,92.8,75.7,63.7,63.9,54.8,43.5,72,50,28,29.88,29.63,48,17,48,0.11
2013-5-26,91.5,76.2,61.2,60.0,54.4,45.4,88,51,21,29.70,29.56,30,10,30,0.00
2013-5-27,79.4,68.7,55.9,64.6,57.9,47.8,93,70,49,29.62,29.51,33,9,33,0.00
2013-5-28,85.5,69.6,56.4,61.5,55.5,44.5,92,64,30,29.71,29.42,37,10,37,0.00
2013-5-29,83.0,66.6,50.2,64.4,56.0,45.6,93,70,41,29.55,29.22,57,14,57,0.28
2013-5-30,78.2,61.8,45.6,55.3,46.6,33.8,96,64,21,29.74,29.54,26,7,26,0.01
2013-5-31,79.6,64.6,45.8,50.3,37.2,21.6,86,45,13,29.89,29.71,40,14,40,0.00
2013-6-1,70.2,58.9,44.0,45.6,41.9,37.2,78,55,35,30.18,29.89,40,18,40,0.00
2013-6-2,80.3,59.9,36.2,46.6,41.9,33.3,92,57,28,30.19,29.86,34,13,34,0.00
2013-6-3,97.5,73.3,52.4,57.7,49.0,35.5,78,48,13,29.86,29.48,48,18,48,0.00
2013-6-4,74.8,65.7,57.3,60.6,57.5,54.6,92,76,54,30.02,29.62,28,11,28,0.09
2013-6-5,61.9,54.1,47.0,56.0,50.2,45.0,94,87,68,30.16,29.93,27,10,27,0.28
2013-6-6,77.3,61.1,44.0,56.1,49.5,42.0,97,70,35,30.14,29.95,22,4,22,0.01
2013-6-7,83.3,66.7,47.6,59.5,51.4,44.5,93,63,32,30.04,29.72,24,7,24,0.01
2013-6-8,79.1,68.4,50.9,58.8,53.8,43.1,83,62,29,29.90,29.57,42,16,42,0.01
2013-6-9,89.7,70.3,45.5,55.5,48.2,42.7,95,52,21,29.95,29.79,19,6,19,0.00
2013-6-10,102.2,80.9,56.2,60.5,50.9,45.1,70,40,17,29.84,29.56,21,7,21,0.00
2013-6-11,108.2,84.8,59.0,63.1,47.2,29.5,68,33,8,29.61,29.39,40,10,40,0.00
2013-6-12,94.8,78.7,60.9,63.2,56.1,48.5,89,52,22,29.97,29.55,29,10,29,0.00
2013-6-13,94.7,70.7,56.0,60.2,55.0,49.3,85,61,28,30.03,29.77,42,13,42,0.13
2013-6-14,94.8,77.4,63.2,63.0,55.1,41.9,87,52,19,29.87,29.68,52,13,52,0.04
2013-6-15,89.8,75.2,58.1,61.4,56.4,52.3,89,56,30,29.95,29.73,39,6,39,0.27
2013-6-16,90.0,70.8,57.6,62.7,58.1,53.3,91,68,34,29.96,29.75,51,9,51,0.45
2013-6-17,79.3,67.4,52.9,64.0,58.5,51.2,97,75,50,30.04,29.93,23,5,23,0.01
2013-6-18,87.1,71.2,57.9,62.3,57.1,53.3,90,65,34,30.07,29.80,41,11,41,0.74
2013-6-19,82.7,71.3,59.9,67.0,61.9,55.8,92,73,53,29.94,29.66,40,18,40,0.01
2013-6-20,96.3,79.3,63.8,66.7,61.1,49.3,89,59,23,29.70,29.57,34,14,34,0.00
2013-6-21,98.3,83.3,64.1,63.9,55.4,38.1,68,42,13,29.67,29.50,37,16,37,0.00
2013-6-22,90.4,78.7,62.6,65.6,61.6,54.3,90,58,31,29.65,29.49,38,11,38,0.00
2013-6-23,85.3,74.6,61.5,65.2,57.0,50.6,78,56,37,29.79,29.59,40,11,40,0.00
2013-6-24,95.0,78.4,62.0,63.2,54.9,33.6,85,50,13,29.80,29.52,41,12,46,0.00
2013-6-25,95.5,80.6,62.3,64.8,53.3,41.6,82,44,17,29.75,29.48,28,10,31,0.00
2013-6-26,99.5,83.2,58.4,62.1,51.9,47.4,77,38,19,29.83,29.75,20,7,22,0.00
2013-6-27,95.0,82.7,66.6,66.9,60.2,54.3,83,50,27,30.00,29.77,34,13,34,0.00
2013-6-28,97.0,79.6,59.6,68.3,56.2,50.2,94,52,23,30.03,29.89,30,5,30,0.00
2013-6-29,90.8,75.8,60.0,61.0,54.7,50.0,82,51,28,30.04,29.87,28,7,28,0.02
2013-6-30,83.1,69.1,53.3,54.0,49.9,46.0,84,53,33,30.12,30.00,24,5,24,0.00
2013-7-1,80.8,68.6,56.0,52.5,48.1,41.7,80,51,28,30.19,30.10,22,6,22,0.00
2013-7-2,82.3,68.0,46.7,45.2,41.7,38.1,80,42,23,30.19,30.04,22,5,22,0.00
2013-7-3,87.5,71.8,53.1,46.4,42.4,37.4,61,37,21,30.07,29.81,29,12,30,0.00
2013-7-4,92.3,76.8,55.4,52.8,46.8,43.3,69,38,20,29.85,29.70,30,11,30,0.00
2013-7-5,99.5,82.5,65.3,56.4,51.9,47.4,58,37,19,29.74,29.53,34,14,34,0.00
2013-7-6,99.2,82.6,60.2,66.2,56.1,51.6,80,44,23,29.70,29.59,30,6,30,0.00
2013-7-7,100.0,82.8,65.7,66.0,58.2,52.4,89,47,22,29.87,29.67,38,10,38,0.04
2013-7-8,101.2,81.9,65.0,67.2,61.5,53.8,94,57,23,29.85,29.71,42,8,43,0.00
2013-7-9,101.5,83.6,64.2,66.5,59.4,54.8,80,48,23,29.98,29.79,18,6,23,0.00
2013-7-10,90.5,77.8,66.9,67.7,62.4,54.8,86,60,40,29.99,29.86,34,11,34,0.02
2013-7-11,95.2,79.4,59.4,64.0,59.0,54.5,88,54,28,29.97,29.75,32,11,35,0.00
2013-7-12,102.5,86.6,70.3,63.0,59.0,51.9,72,43,20,29.78,29.63,38,16,40,0.00
2013-7-13,100.7,83.5,63.0,67.2,61.0,54.8,87,50,28,29.83,29.66,23,7,23,0.00
2013-7-14,83.5,73.2,66.7,67.6,64.9,61.8,91,76,55,30.06,29.78,28,6,28,0.03
2013-7-15,84.5,71.4,57.3,63.6,54.8,47.3,98,61,28,30.13,30.03,29,10,30,0.00
2013-7-16,81.7,71.0,61.8,61.5,59.6,56.0,91,69,43,30.19,30.06,34,16,34,0.00
2013-7-17,87.3,73.8,60.2,62.6,60.1,56.9,93,65,39,30.24,30.07,46,17,46,0.00
2013-7-18,92.2,79.1,65.2,63.1,60.3,56.6,89,57,31,30.08,29.80,41,18,41,0.00
2013-7-19,94.0,75.1,60.7,64.2,60.6,56.0,90,66,31,29.91,29.79,44,9,44,0.48
2013-7-20,85.7,74.0,61.5,67.7,63.4,59.8,96,72,45,29.92,29.77,21,6,21,0.01
2013-7-21,71.3,64.2,61.1,66.9,59.8,57.2,89,86,79,29.86,29.82,26,8,26,0.00
2013-7-22,96.5,88.3,73.2,64.0,58.5,52.7,67,39,26,29.76,29.67,33,17,33,0.00
2013-7-23,89.9,75.9,60.7,65.4,61.0,56.3,90,63,37,29.96,29.67,29,8,29,0.00
2013-7-24,89.1,73.7,59.8,65.2,60.8,46.5,95,69,29,30.05,29.93,48,7,56,0.06
2013-7-25,83.0,69.3,61.2,66.6,62.4,58.7,96,80,51,30.05,29.89,28,8,28,0.00
2013-7-26,83.6,72.1,58.6,67.3,59.6,55.6,97,68,42,30.15,30.03,19,6,19,0.01
2013-7-27,71.5,64.5,57.0,58.2,55.9,53.7,92,74,61,30.05,29.92,29,11,29,0.13
2013-7-28,62.7,58.6,54.4,62.1,57.4,53.0,98,96,91,30.02,29.93,17,6,17,0.09
2013-7-29,78.4,68.5,62.6,66.8,64.0,61.7,98,87,63,30.01,29.89,19,5,19,0.00
2013-7-30,87.4,72.9,62.2,69.6,64.1,59.8,98,77,43,30.06,29.96,40,5,54,0.05
2013-7-31,91.3,75.4,64.2,70.1,64.5,58.1,95,72,39,30.11,29.97,34,8,34,0.00
2013-8-1,96.1,78.4,66.6,64.9,61.6,56.8,84,59,31,30.11,29.69,41,16,41,0.00
2013-8-2,93.5,77.2,63.6,68.7,64.3,59.2,93,68,35,29.88,29.73,28,9,28,0.00
2013-8-3,72.0,68.7,66.5,69.1,66.4,63.6,97,92,86,30.11,29.88,23,5,23,0.02
2013-8-4,87.7,74.1,66.0,69.3,66.5,63.9,98,80,46,30.06,29.88,28,7,28,0.00
2013-8-5,91.6,74.0,64.9,74.2,66.1,59.1,97,79,39,29.91,29.75,38,8,38,0.10
2013-8-6,87.7,75.7,63.7,70.1,66.1,60.7,93,74,52,29.86,29.75,21,6,21,0.00
2013-8-7,78.1,69.2,61.2,67.3,60.1,57.2,94,74,49,29.98,29.83,29,6,29,0.75
2013-8-8,72.9,66.7,63.1,63.2,61.0,55.2,96,83,57,30.05,29.90,14,3,14,0.01
2013-8-9,80.4,68.0,55.4,64.6,58.0,53.9,97,74,43,30.16,30.04,22,5,22,0.00
2013-8-10,79.7,68.3,54.0,62.1,58.4,52.3,96,73,50,30.17,30.01,27,11,28,0.01
2013-8-11,83.0,70.3,62.7,68.8,63.8,60.5,94,81,54,30.06,29.91,21,6,22,0.00
2013-8-12,84.3,71.0,62.9,68.9,62.4,57.1,98,77,42,30.05,29.94,22,5,22,0.03
2013-8-13,79.5,69.3,59.0,66.5,61.3,57.0,95,77,53,30.10,30.02,20,6,20,0.24
2013-8-14,81.2,69.7,60.1,66.0,62.0,56.7,95,78,45,30.11,29.94,26,8,27,0.25
2013-8-15,84.8,70.9,55.9,62.6,57.6,53.5,94,66,38,30.06,29.89,27,7,27,0.03
2013-8-16,83.8,70.4,58.5,66.5,62.4,55.8,97,78,53,30.04,29.96,19,5,19,0.00
2013-8-17,80.1,70.3,65.4,66.7,65.0,62.7,95,84,62,30.04,29.93,28,12,28,0.00
2013-8-18,82.3,71.2,64.6,66.1,63.8,62.2,92,78,57,30.00,29.88,28,12,28,0.00
2013-8-19,93.0,75.8,58.1,67.4,62.5,56.1,96,68,30,29.97,29.83,27,8,27,0.00
2013-8-20,94.2,78.0,61.1,66.3,62.3,59.1,95,63,33,29.87,29.77,31,14,31,0.00
2013-8-21,98.7,81.2,60.9,64.2,59.8,55.3,91,53,24,29.83,29.75,34,12,34,0.00
2013-8-22,90.7,76.8,64.2,66.5,61.7,54.0,90,63,36,29.94,29.82,26,11,26,0.00
2013-8-23,92.2,77.5,65.9,65.4,61.9,54.5,94,62,37,29.94,29.76,26,9,26,0.00
2013-8-24,98.2,81.5,63.5,59.9,57.2,53.2,80,47,23,29.89,29.78,43,18,43,0.00
2013-8-25,98.0,83.0,66.4,60.5,57.8,53.8,74,45,25,29.92,29.83,40,19,40,0.00
2013-8-26,99.0,84.0,68.4,60.8,58.1,54.2,72,45,23,29.92,29.81,39,18,39,0.00
2013-8-27,98.3,81.8,60.7,59.8,55.8,49.7,83,45,22,29.86,29.78,30,12,30,0.00
2013-8-28,96.8,78.4,57.0,59.5,54.9,48.5,88,50,20,29.90,29.83,26,8,26,0.00
2013-8-29,101.5,81.0,56.7,59.0,53.9,48.4,89,46,18,29.90,29.80,33,5,33,0.00
2013-8-30,102.6,81.4,59.0,64.4,54.6,49.2,77,45,18,29.91,29.79,35,4,35,0.03
2013-8-31,98.3,79.5,65.7,65.6,60.5,53.0,86,57,23,29.86,29.70,30,9,30,0.06
2013-9-1,86.5,73.5,60.8,63.3,53.7,45.5,89,55,28,30.03,29.82,26,6,26,0.00
2013-9-2,90.0,73.6,53.4,56.5,51.6,47.0,84,50,30,30.05,29.91,28,11,28,0.00
2013-9-3,96.0,79.6,64.8,58.9,56.3,53.4,67,47,28,29.97,29.83,34,16,34,0.00
2013-9-4,100.2,81.6,61.9,59.4,55.0,50.9,77,43,22,29.97,29.87,28,11,28,0.00
2013-9-5,74.7,70.2,62.4,57.0,55.3,52.9,74,60,54,29.98,29.95,19,7,19,0.00
2013-9-12,66.0,64.3,63.5,64.2,63.2,62.2,97,96,92,30.18,30.11,22,10,22,2.06
2013-9-13,64.1,61.3,56.9,62.6,59.7,55.1,97,95,90,30.14,29.95,29,19,29,0.90
2013-9-14,82.8,68.5,59.0,68.0,62.5,56.4,95,82,55,29.96,29.74,33,15,33,0.00
2013-9-15,67.1,61.1,57.8,63.0,58.7,55.1,96,92,86,30.22,29.82,25,12,25,0.00
2013-9-16,59.0,56.8,54.5,56.9,55.3,53.3,97,95,91,30.26,30.11,21,8,21,0.03
2013-9-17,84.7,69.7,57.6,66.9,62.1,56.8,98,79,47,30.11,29.72,25,12,25,0.00
2013-9-18,92.3,74.6,60.2,64.3,60.1,54.9,95,66,29,29.72,29.57,20,8,20,0.00
2013-9-19,72.7,63.3,54.5,60.8,54.0,49.2,91,73,47,30.12,29.67,31,10,31,0.00
2013-9-20,75.3,60.6,47.7,53.4,46.9,40.5,95,65,29,30.15,30.00,24,5,24,0.00
2013-9-21,82.8,66.4,47.6,57.4,52.0,44.9,93,64,32,30.02,29.73,24,10,24,0.00
2013-9-22,89.0,69.9,55.4,59.9,53.7,45.5,93,61,29,29.73,29.49,38,17,38,0.00
2013-9-23,70.5,61.9,52.7,51.6,48.7,45.4,81,63,43,29.92,29.36,47,18,47,0.00
2013-9-24,78.7,62.1,48.1,51.1,43.6,37.9,92,57,25,30.09,29.88,18,7,18,0.00
2013-9-25,88.8,68.2,48.6,49.4,43.3,39.2,72,45,18,29.88,29.46,38,16,38,0.00
2013-9-26,83.8,67.2,47.9,51.8,47.4,41.8,84,51,29,29.61,29.46,30,6,30,0.00
2013-9-27,75.4,62.6,49.0,62.8,52.7,45.7,92,71,52,29.89,29.51,40,13,40,0.26
2013-9-28,69.2,53.4,41.5,45.8,38.8,30.8,93,64,25,30.15,29.87,28,8,28,0.00
2013-9-29,80.9,59.0,38.9,45.0,40.0,35.2,90,56,21,30.14,29.83,28,8,28,0.00
2013-9-30,84.5,64.0,41.4,52.8,44.2,37.3,92,56,19,29.85,29.68,29,8,29,0.00
2013-10-1,75.7,61.0,47.5,52.0,45.6,35.7,89,61,34,29.96,29.74,27,8,27,0.00
2013-10-2,81.5,63.4,46.0,60.9,53.7,43.7,99,74,43,29.90,29.72,16,2,16,0.00
2013-10-3,64.4,55.6,49.2,56.8,51.6,45.2,96,86,73,29.73,29.65,22,9,22,0.00
2013-10-4,56.0,49.0,37.1,55.2,41.6,28.1,99,77,49,30.19,29.63,45,17,45,0.01
2013-10-5,56.4,44.4,35.4,29.7,26.1,20.8,76,51,26,30.25,30.15,40,16,40,0.00
2013-10-6,70.0,53.1,39.7,39.2,34.2,27.6,75,51,30,30.24,30.15,38,13,38,0.00
2013-10-7,80.3,58.0,34.6,42.3,36.3,31.7,92,52,19,30.21,29.90,32,10,32,0.00
2013-10-8,83.8,62.9,44.2,38.1,35.0,31.4,66,39,17,29.90,29.65,37,16,37,0.00
2013-10-9,76.0,59.7,42.6,43.3,39.0,31.3,74,48,30,29.83,29.67,26,7,26,0.00
2013-10-10,84.2,59.7,39.5,52.2,45.6,36.0,92,65,30,29.86,29.45,50,14,50,0.46
2013-10-11,66.2,52.7,39.8,47.2,41.3,35.7,89,67,44,30.08,29.56,35,11,35,0.04
2013-10-12,60.5,50.8,44.9,45.6,41.6,37.2,91,72,46,30.28,30.08,21,6,21,0.03
2013-10-13,66.5,54.5,41.9,54.5,43.0,35.7,87,66,43,30.33,30.02,41,21,41,0.00
2013-10-14,70.7,55.0,40.0,58.4,47.1,32.7,93,76,31,30.09,29.66,45,21,45,0.13
2013-10-15,51.4,42.7,32.0,32.8,31.0,26.4,89,64,47,30.34,30.09,34,16,34,0.00
2013-10-16,55.9,40.0,26.9,35.1,30.2,23.8,92,71,43,30.31,30.08,20,6,20,0.00
2013-10-17,57.4,43.6,29.3,35.7,32.3,26.1,90,67,41,30.21,30.10,22,8,22,0.05
2013-10-18,47.9,36.7,30.8,39.7,32.4,27.3,95,85,63,30.28,30.18,35,6,35,0.31
2013-10-19,64.2,45.7,30.2,37.1,31.9,26.8,89,64,28,30.25,29.96,25,8,25,0.00
2013-10-20,55.1,43.2,32.9,41.1,34.5,28.3,92,73,47,30.22,29.89,23,7,25,0.00
2013-10-21,61.5,45.1,29.4,39.3,33.5,27.3,94,68,32,30.26,30.12,30,6,30,0.00
2013-10-22,68.4,54.6,42.9,41.8,38.5,35.2,79,57,33,30.17,30.09,29,10,34,0.00
2013-10-23,70.1,50.9,36.1,41.5,35.9,33.1,92,63,26,30.29,30.07,27,8,27,0.00
2013-10-24,50.4,40.9,28.2,39.7,35.4,26.2,94,81,65,30.45,30.29,20,6,20,0.00
2013-10-25,64.3,46.4,34.8,42.8,37.5,31.6,90,73,44,30.44,30.12,36,12,36,0.00
2013-10-26,62.7,48.8,36.9,40.6,36.1,31.4,88,65,35,30.38,30.16,26,8,26,0.00
2013-10-27,75.3,53.1,35.5,41.6,36.0,30.9,86,58,22,30.18,29.83,18,5,18,0.00
2013-10-28,42.0,39.5,34.4,38.0,34.6,29.5,94,83,75,30.17,29.84,29,10,29,0.01
2013-10-29,44.2,39.2,36.2,41.6,37.4,34.9,96,93,85,30.15,30.05,19,8,19,0.00
2013-10-30,58.4,43.4,34.0,43.8,37.5,29.7,96,82,50,30.08,29.85,14,3,16,0.01
2013-10-31,60.5,46.4,32.1,37.7,30.3,24.6,93,59,26,29.89,29.79,39,12,39,0.00
2013-11-1,57.4,45.9,30.3,37.1,28.9,21.6,75,54,29,30.30,29.89,39,15,39,0.00
2013-11-2,60.9,43.0,22.8,32.2,26.6,19.0,92,57,29,30.38,29.88,31,11,31,0.00
2013-11-3,72.5,47.9,34.0,36.2,31.7,25.6,81,57,19,29.87,29.54,35,10,35,0.00
2013-11-4,51.3,40.6,29.9,35.8,30.2,26.0,88,68,42,30.15,29.76,35,9,35,0.00
2013-11-5,39.4,35.1,22.2,37.7,32.5,19.7,94,90,82,30.33,30.00,32,11,32,0.24
2013-11-6,54.6,35.3,20.6,33.2,24.2,18.0,93,69,28,30.50,30.33,19,5,20,0.00
2013-11-7,59.0,42.3,26.6,36.3,29.2,22.8,92,63,33,30.58,30.13,23,7,23,0.00
2013-11-8,74.4,49.9,32.1,38.2,31.9,27.3,85,55,22,30.13,29.82,29,7,29,0.00
2013-11-9,60.6,43.8,28.9,36.8,32.3,24.3,92,67,38,30.39,30.05,15,4,15,0.00
2013-11-10,58.4,41.9,25.5,46.2,36.8,22.5,93,83,61,30.41,30.25,33,9,33,0.00
2013-11-11,41.2,31.9,27.0,35.7,28.9,22.7,94,89,80,30.90,30.24,25,11,25,0.00
2013-11-12,50.6,35.5,23.2,33.7,28.1,20.0,90,76,51,30.93,30.56,24,9,24,0.00
2013-11-13,71.5,45.1,26.3,39.0,30.0,23.2,91,62,21,30.56,30.00,23,9,23,0.00
2013-11-14,58.4,48.0,34.3,40.2,34.4,27.8,80,60,45,30.08,29.97,33,11,33,0.00
2013-11-15,66.2,50.1,36.1,39.7,32.7,28.2,91,54,25,29.84,29.48,40,14,40,0.00
2013-11-16,61.3,46.4,31.4,34.5,30.3,24.4,81,56,31,29.56,29.37,25,8,25,0.00
2013-11-17,52.4,39.0,21.1,36.9,19.8,11.1,83,51,20,30.26,29.54,44,12,44,0.00
2013-11-18,60.5,38.3,21.2,22.3,17.7,13.3,77,48,22,30.35,30.18,38,11,38,0.00
2013-11-19,55.6,38.7,22.8,28.4,23.4,15.5,77,56,33,30.18,29.81,26,8,26,0.00
2013-11-20,64.8,47.8,34.0,35.2,29.5,25.8,77,52,28,29.96,29.83,17,4,21,0.00
2013-11-21,43.1,21.2,15.9,32.1,15.4,10.6,83,78,64,30.89,29.96,39,19,39,0.00
2013-11-22,32.5,25.1,16.4,22.8,16.6,10.5,82,71,50,30.93,30.81,17,4,17,0.00
2013-11-23,34.9,27.1,22.5,22.8,17.5,15.1,79,68,46,30.93,30.72,18,5,18,0.00
2013-11-24,40.6,30.5,19.7,25.5,21.3,15.3,88,69,51,30.72,30.18,51,21,51,0.00
2013-11-25,45.6,28.0,13.5,28.4,20.4,10.5,91,75,40,30.51,30.18,30,9,31,0.00
2013-11-26,42.7,27.6,15.3,28.3,18.4,10.2,89,70,42,30.60,30.50,22,5,22,0.00
2013-11-27,63.1,36.0,14.4,29.3,20.0,10.1,88,58,22,30.57,30.16,30,8,30,0.00
2013-11-28,45.4,31.7,20.7,27.2,21.8,15.8,88,69,40,30.48,30.26,14,5,14,0.00
2013-11-29,53.7,31.6,19.2,36.2,24.3,16.5,93,77,41,30.46,30.23,18,4,18,0.00
2013-11-30,62.7,38.4,20.7,32.9,22.7,16.4,92,59,25,30.35,30.21,12,3,12,0.00
2013-12-1,60.3,36.3,18.6,28.9,21.9,14.5,94,60,29,30.27,29.96,15,4,15,0.00
2013-12-2,69.0,45.2,29.0,33.5,25.3,20.0,74,50,21,29.97,29.64,23,5,23,0.00
2013-12-3,61.7,38.1,20.3,34.1,25.3,15.4,86,63,31,29.84,29.50,33,12,33,0.00
2013-12-4,20.2,15.5,5.2,16.4,8.1,-2.6,88,73,53,30.46,29.82,33,14,33,0.00
2013-12-5,14.3,7.9,-0.4,3.2,-1.7,-7.1,75,65,56,30.63,30.46,12,3,12,0.00
2013-12-6,15.5,8.6,1.1,1.1,-2.2,-6.0,74,61,49,30.82,30.62,10,3,10,0.00
2013-12-7,9.9,8.1,5.8,5.6,-0.2,-4.5,84,69,59,30.80,30.32,25,12,25,0.00
2013-12-8,14.5,7.3,-5.1,10.2,3.5,-10.0,92,84,79,30.51,30.18,16,4,16,0.00
2013-12-9,25.5,11.3,-3.5,13.0,3.7,-8.3,83,72,53,30.63,30.47,20,6,20,0.00
2013-12-10,46.7,25.8,5.8,19.5,11.1,0.1,79,57,22,30.52,30.22,31,10,37,0.00
2013-12-11,36.9,21.2,6.8,20.1,13.9,3.3,89,74,46,30.75,30.50,31,8,31,0.00
2013-12-12,59.1,29.6,9.1,26.0,13.0,5.0,92,57,20,30.63,30.11,21,5,21,0.00
2013-12-13,53.2,31.1,15.9,23.9,17.0,7.9,79,59,26,30.27,29.93,27,9,27,0.00
2013-12-14,48.9,32.1,21.1,30.5,20.0,11.4,98,64,33,30.40,30.27,32,8,32,0.00
2013-12-15,60.2,36.4,21.2,24.4,17.8,12.0,75,51,24,30.34,30.19,29,7,29,0.00
2013-12-16,63.9,39.8,23.5,26.0,18.1,11.0,76,45,20,30.34,30.17,23,6,23,0.00
2013-12-17,58.2,38.0,18.9,25.0,18.4,11.6,75,48,25,30.49,30.15,22,7,22,0.00
2013-12-18,73.0,45.9,30.2,27.2,18.1,8.3,54,37,13,30.15,29.78,16,2,17,0.00
2013-12-19,45.1,32.0,16.1,28.6,22.0,10.5,92,67,44,30.08,29.67,32,9,32,0.00
2013-12-20,28.8,16.7,10.5,11.4,6.7,2.0,78,65,47,30.14,30.01,25,6,26,0.00
2013-12-21,36.6,23.7,8.2,21.6,13.6,3.3,84,66,47,30.11,29.87,18,4,18,0.00
2013-12-22,40.2,25.2,11.8,20.6,12.8,8.0,89,62,30,30.44,30.11,18,6,18,0.00
2013-12-23,33.2,21.6,15.5,21.2,15.3,12.6,88,77,55,30.67,30.41,27,11,27,0.00
2013-12-24,62.1,34.0,16.8,33.6,23.8,12.3,89,69,28,30.46,30.15,38,10,38,0.00
2013-12-25,45.1,28.2,14.2,23.9,16.1,8.4,91,64,35,30.57,30.42,27,7,27,0.00
2013-12-26,55.8,33.8,18.3,22.9,15.8,10.4,74,52,24,30.47,30.35,29,7,29,0.00
2013-12-27,66.0,38.5,20.6,21.5,15.3,8.2,78,45,17,30.46,30.17,20,5,20,0.00
2013-12-28,64.5,35.2,18.2,26.1,17.2,8.4,69,51,22,30.37,29.90,36,12,36,0.00
2013-12-29,32.2,19.6,12.1,16.6,8.7,3.7,79,63,40,30.52,30.27,33,9,33,0.00
2013-12-30,49.2,32.4,18.9,24.7,16.8,8.5,76,55,32,30.41,30.24,37,10,37,0.00
2013-12-31,61.8,40.2,23.9,26.9,20.7,14.2,68,48,24,30.36,30.01,39,8,39,0.00
2014-1-1,34.2,27.7,18.2,23.8,20.6,14.9,89,75,59,30.53,29.99,26,8,26,0.00
2014-1-2,47.0,29.8,16.6,27.6,18.4,12.4,96,66,34,30.53,30.23,20,7,20,0.00